Wind_Speed
95 98 102 106 109 112 115 118 120 123 125 126 126 125 124 125 129 127 124 119 118 116 112 110 104 102 97 95 93 87 82 80 79 81 77 77 77 80 87 85 89 96 99
101 104 107 111 113 117 120 123 124 124 124 123 124 126 128 126 122 121 120 116 111 106 101 98 94 92 88 87 85 83 78 79 78 79 79 76 77 78 83 87 97 107 91
106 109 112 115 118 120 121 122 121 122 123 125 127 125 123 120 115 112 109 104 100 96 92 88 85 84 81 80 78 78 76 77 76 74 78 76 75 78 82 88 95 102 95
112 114 116 118 119 120 120 120 122 125 125 123 123 120 118 113 105 101 97 93 88 84 80 77 74 73 70 71 69 71 68 71 73 74 78 76 72 78 83 87 91 94 99
115 116 117 117 118 119 124 126 127 125 123 119 115 113 110 104 95 88 85 80 75 71 67 64 64 63 61 62 60 63 63 66 68 66 72 76 75 78 84 89 94 99 105
114 115 118 120 124 127 126 125 123 119 115 111 108 103 99 92 85 78 73 69 66 62 58 55 55 55 54 52 54 57 58 63 64 65 69 74 77 81 87 88 96 99 106
118 120 123 125 124 123 122 117 113 111 105 102 97 92 87 81 73 69 65 58 53 50 48 46 46 46 45 44 47 51 55 53 59 62 65 70 73 83 87 91 97 95 103
123 122 121 119 117 115 112 108 103 98 96 92 86 81 76 73 64 56 55 50 46 42 40 38 37 37 37 39 43 45 46 51 54 52 54 62 73 78 86 92 98 99 105
118 116 113 111 107 103 100 95 92 91 86 79 76 71 67 62 55 50 47 45 40 35 33 32 32 31 32 35 38 39 43 40 39 49 58 64 72 76 85 92 98 101 102
109 107 104 102 99 92 89 87 84 79 73 69 65 60 55 55 51 43 40 35 35 30 28 27 27 27 28 32 34 33 40 40 43 47 52 61 70 73 80 89 95 99 101
103 99 94 89 85 82 80 76 72 66 63 58 55 50 50 49 44 39 36 30 26 24 24 23 23 24 26 28 27 29 34 31 37 45 52 61 66 66 73 86 92 96 96
93 87 82 77 75 72 70 65 60 56 52 48 47 46 45 42 38 35 29 24 20 16 15 15 17 19 19 21 20 23 28 33 39 46 51 56 59 60 69 81 87 91 92
78 72 70 68 65 62 57 52 49 45 41 41 41 40 37 35 33 31 26 21 17 14 11 9 10 12 14 16 18 22 27 33 38 44 47 49 52 57 66 74 82 87 85
67 65 61 57 55 47 46 42 37 35 36 35 34 34 34 32 29 28 24 20 15 12 10 7 5 9 11 13 18 23 27 30 34 37 41 42 47 54 62 68 76 81 81
58 53 49 45 41 38 33 30 28 29 28 27 27 27 27 26 27 24 19 16 12 9 7 3 2 7 12 14 16 19 21 24 28 32 37 42 47 54 59 64 70 73 77
47 41 37 35 31 26 23 22 23 21 21 21 23 24 27 28 26 22 20 16 12 10 10 8 5 4 8 12 14 17 20 23 26 30 35 39 45 49 53 57 61 65 68
34 31 30 24 20 18 19 19 16 20 19 20 23 25 25 27 25 24 23 20 19 17 16 15 13 12 11 10 13 15 17 21 28 31 35 39 42 45 48 51 54 57 61
27 25 19 15 13 16 15 12 19 19 19 21 24 24 25 25 25 24 24 22 23 23 21 22 22 21 20 18 19 20 21 25 29 32 35 38 41 43 44 47 50 53 53
20 14 9 8 13 12 9 14 20 22 25 29 28 27 28 29 29 25 25 26 27 26 27 27 29 28 27 27 29 29 29 31 33 34 34 34 37 39 39 40 42 44 47
9 4 6 12 12 11 11 15 18 21 25 25 30 33 30 27 26 26 25 27 28 29 32 32 32 31 30 33 33 34 37 35 34 33 34 36 35 36 37 38 40 43 45
3 7 12 15 17 19 21 22 24 30 30 29 28 28 30 32 29 29 28 30 32 34 35 34 33 31 31 32 34 36 38 37 35 33 34 34 34 33 34 35 35 35 36
9 14 16 20 22 25 27 25 25 30 32 32 31 32 31 31 32 32 34 35 36 35 37 38 37 36 35 34 33 33 34 34 35 37 36 35 34 33 32 33 34 34 34
16 18 20 21 25 26 28 27 27 27 30 34 35 34 32 30 31 33 34 35 34 33 36 39 39 36 35 34 32 32 31 29 30 30 30 31 30 29 30 31 31 32 32
22 23 24 25 27 28 29 27 28 32 38 36 31 31 34 36 34 31 29 30 34 34 35 40 38 37 35 33 32 31 31 32 31 31 30 30 29 29 28 29 29 28 27
27 26 27 28 30 31 34 34 38 42 40 38 35 38 38 35 35 36 36 39 41 44 48 46 44 42 42 40 36 32 30 28 33 34 33 32 32 31 31 30 29 28 26
29 29 28 29 33 35 38 39 40 40 40 39 38 35 33 32 32 37 39 41 42 45 49 50 49 46 44 43 42 38 37 35 36 32 30 29 30 30 29 29 28 27 26
Wind_Direction
291 292 292 292 293 294 293 293 294 294 294 295 296 296 295 294 294 293 291 290 288 286 285 284 282 280 278 275 272 269 266 261 256 254 248 243 239 234 231 230 224 224 231
293 293 293 293 293 294 295 295 296 296 296 296 295 296 296 295 294 294 293 292 289 287 285 283 280 277 274 271 269 267 262 258 253 250 247 240 236 230 228 224 221 225 227
292 293 295 297 297 297 297 297 297 296 297 297 298 298 297 296 297 296 294 292 290 288 285 282 278 274 272 269 266 263 259 255 250 246 244 238 231 228 224 222 219 222 220
298 298 297 297 297 297 298 298 299 299 299 300 301 300 299 300 300 298 295 292 290 287 283 280 276 272 268 265 261 258 255 251 246 241 239 236 229 224 221 220 219 217 215
297 298 298 299 299 299 300 301 300 301 302 302 301 301 302 301 301 299 296 294 290 286 282 278 274 270 266 262 258 254 250 247 243 238 235 232 226 221 219 216 215 213 212
300 300 301 301 300 301 301 300 302 303 303 302 302 303 303 303 304 301 298 295 290 286 282 275 271 267 262 259 254 250 245 242 239 235 230 227 222 217 216 214 215 213 211
301 300 299 300 300 301 301 302 303 303 303 303 305 305 306 306 305 302 298 294 290 285 278 273 268 261 257 253 250 244 242 239 236 232 228 225 220 216 213 212 214 212 208
299 299 299 300 301 301 303 303 303 304 305 306 307 308 308 307 307 305 302 298 293 286 276 270 264 257 251 247 243 241 238 233 231 227 225 219 218 216 211 210 212 211 208
299 299 300 301 301 303 304 304 305 306 307 309 309 310 309 310 313 311 305 300 295 288 278 268 261 256 249 244 240 237 235 232 221 216 213 212 214 212 209 209 210 210 209
299 300 301 302 304 304 304 305 306 308 309 310 310 309 312 316 315 314 308 302 295 290 282 272 263 255 246 241 237 230 231 225 216 214 212 211 213 210 206 206 208 209 208
301 302 303 304 304 305 306 307 308 311 313 311 310 316 319 318 318 318 314 309 298 290 283 273 265 255 244 239 232 224 228 220 210 208 206 208 212 210 205 204 205 208 209
303 303 303 304 305 307 307 310 315 315 313 313 320 323 321 320 323 321 318 315 308 294 280 268 258 250 242 240 229 220 216 209 204 204 205 208 209 207 203 204 203 206 207
304 304 304 306 307 307 311 316 314 315 318 325 325 324 329 330 329 327 328 324 316 305 291 262 238 235 232 217 220 215 206 202 201 202 204 205 204 200 200 200 200 203 206
305 305 307 307 308 314 317 316 318 323 329 330 336 343 341 338 340 340 338 334 330 318 306 281 231 199 200 207 202 202 200 196 195 195 198 198 198 196 197 196 196 199 204
306 308 307 308 317 319 320 325 333 338 338 350 356 356 355 358 0 357 358 359 358 356 344 323 225 182 171 175 189 188 188 187 188 187 188 189 191 192 193 193 193 196 200
310 309 311 319 321 325 336 346 351 353 6 10 18 18 23 20 16 18 21 18 22 39 59 70 86 132 157 158 167 176 173 173 176 178 177 181 184 187 188 190 192 194 199
310 312 321 324 329 346 2 5 9 28 27 34 40 39 39 39 34 37 40 41 45 51 64 78 85 88 101 118 141 148 151 162 165 167 172 174 177 181 186 188 191 194 200
313 323 329 337 358 21 22 30 51 48 44 53 56 57 54 54 52 48 51 54 62 70 77 85 90 96 104 111 119 125 133 145 152 156 164 169 173 177 181 184 189 194 197
324 332 346 20 41 50 59 68 77 79 78 78 77 73 70 71 70 64 69 71 73 75 80 87 92 96 104 110 114 117 123 133 141 148 154 163 169 172 175 179 184 191 195
340 7 65 66 68 86 80 87 93 92 94 94 98 94 90 86 79 76 72 77 77 80 83 85 88 94 102 106 112 117 121 127 136 143 149 155 162 163 165 172 180 185 189
83 103 91 98 102 104 104 102 107 107 107 104 98 95 96 91 83 77 73 76 79 82 83 86 87 92 97 104 112 117 120 124 129 135 141 145 150 156 161 165 169 175 182
133 113 112 119 117 117 119 123 115 112 112 110 106 104 96 90 86 84 83 84 84 86 87 86 88 90 91 94 99 107 117 124 132 136 138 142 146 150 156 161 165 168 174
132 121 124 128 126 130 129 133 123 118 117 114 111 107 100 92 85 84 85 84 83 84 88 91 90 91 94 96 100 104 109 113 120 127 133 138 142 148 154 158 163 167 171
132 132 136 136 139 135 136 136 120 116 115 113 111 106 98 92 86 82 83 82 85 85 87 86 88 88 88 94 99 100 108 115 119 121 126 133 140 148 152 154 155 156 161
139 143 147 147 146 144 140 131 125 122 119 118 112 105 101 93 91 88 84 85 84 85 85 86 84 84 85 84 90 106 116 112 113 120 122 126 130 134 137 139 142 144 150
146 152 155 153 152 148 139 135 132 130 126 122 119 113 109 103 92 94 91 93 93 92 93 93 92 90 88 90 90 87 91 98 107 118 125 130 132 136 138 142 147 149 150
Height
10590 10581 10571 10560 10549 10539 10527 10515 10504 10491 10477 10463 10446 10434 10422 10409 10392 10378 10368 10359 10348 10339 10331 10322 10321 10313 10314 10311 10311 10318 10326 10333 10340 10341 10355 10368 10382 10397 10412 10434 10453 10466 10471
10565 10554 10544 10533 10521 10508 10495 10480 10466 10452 10437 10424 10410 10397 10382 10365 10350 10335 10320 10308 10299 10293 10288 10281 10279 10274 10276 10274 10277 10280 10290 10297 10307 10312 10322 10339 10353 10369 10385 10404 10420 10432 10452
10539 10528 10515 10501 10487 10474 10459 10444 10430 10416 10401 10386 10370 10354 10337 10321 10309 10293 10277 10268 10258 10251 10245 10241 10240 10236 10239 10240 10244 10247 10256 10263 10274 10285 10289 10306 10326 10343 10357 10373 10393 10408 10433
10507 10496 10483 10468 10455 10440 10425 10409 10392 10376 10364 10349 10330 10313 10294 10281 10267 10255 10240 10229 10222 10217 10210 10205 10203 10202 10206 10206 10212 10216 10225 10232 10241 10255 10263 10279 10301 10316 10331 10348 10366 10389 10408
10477 10463 10449 10435 10420 10405 10390 10375 10358 10341 10328 10311 10294 10276 10260 10247 10233 10221 10208 10197 10189 10182 10178 10175 10173 10173 10176 10178 10184 10187 10196 10203 10212 10228 10239 10253 10272 10291 10306 10320 10339 10359 10379
10444 10430 10415 10400 10387 10372 10356 10339 10326 10312 10294 10277 10262 10249 10231 10216 10204 10190 10179 10170 10161 10155 10151 10149 10149 10149 10152 10155 10159 10163 10171 10176 10186 10200 10212 10225 10243 10263 10277 10300 10316 10335 10359
10413 10399 10384 10370 10357 10341 10325 10312 10297 10282 10266 10250 10235 10220 10204 10190 10177 10165 10154 10147 10140 10135 10131 10129 10128 10129 10132 10137 10137 10140 10146 10157 10165 10177 10190 10204 10221 10235 10256 10277 10294 10317 10340
10382 10368 10353 10341 10328 10311 10298 10283 10269 10254 10239 10225 10210 10195 10181 10166 10156 10145 10133 10126 10121 10116 10114 10112 10111 10113 10115 10117 10120 10124 10129 10135 10146 10162 10174 10187 10197 10215 10237 10256 10273 10293 10313
10353 10338 10325 10313 10300 10286 10271 10258 10244 10231 10216 10204 10188 10175 10163 10149 10138 10129 10119 10110 10104 10101 10098 10097 10097 10099 10100 10099 10104 10111 10115 10124 10135 10142 10152 10167 10180 10195 10214 10236 10257 10277 10299
10324 10312 10300 10289 10276 10263 10249 10237 10224 10211 10198 10185 10171 10160 10148 10135 10125 10116 10106 10099 10091 10087 10085 10084 10084 10085 10085 10086 10090 10098 10103 10111 10122 10130 10141 10151 10163 10179 10198 10220 10239 10263 10283
10298 10287 10276 10265 10255 10242 10229 10218 10206 10194 10181 10169 10157 10147 10136 10125 10114 10105 10096 10088 10082 10077 10074 10073 10073 10072 10074 10075 10081 10089 10095 10105 10113 10119 10130 10141 10152 10169 10190 10208 10229 10250 10273
10277 10268 10256 10246 10236 10225 10212 10202 10190 10179 10169 10157 10147 10136 10126 10117 10107 10098 10089 10081 10075 10071 10068 10066 10065 10065 10068 10069 10075 10081 10086 10093 10101 10109 10120 10131 10144 10162 10183 10200 10221 10238 10260
10258 10248 10238 10229 10220 10210 10199 10189 10179 10170 10159 10150 10140 10131 10120 10110 10101 10093 10084 10078 10072 10068 10065 10063 10061 10061 10062 10066 10068 10073 10079 10086 10094 10102 10113 10125 10140 10156 10173 10193 10213 10230 10252
10242 10233 10225 10216 10207 10200 10189 10180 10172 10162 10153 10145 10135 10125 10116 10107 10099 10091 10083 10077 10072 10068 10064 10061 10060 10060 10061 10063 10066 10070 10074 10082 10090 10100 10111 10124 10140 10155 10172 10192 10212 10230 10249
10229 10222 10213 10205 10198 10190 10183 10174 10166 10158 10151 10142 10134 10126 10117 10108 10101 10094 10086 10079 10073 10069 10065 10063 10061 10061 10061 10063 10067 10072 10077 10083 10091 10101 10112 10124 10139 10154 10171 10190 10210 10228 10245
10217 10210 10203 10197 10190 10184 10178 10170 10164 10159 10151 10144 10136 10129 10120 10112 10106 10099 10091 10084 10078 10073 10068 10065 10065 10065 10065 10067 10070 10075 10080 10086 10095 10105 10115 10128 10142 10158 10173 10191 10210 10228 10244
10208 10202 10197 10191 10186 10181 10175 10169 10166 10159 10153 10147 10140 10134 10126 10120 10115 10108 10100 10094 10087 10081 10076 10073 10072 10072 10073 10076 10078 10081 10086 10094 10101 10110 10122 10135 10148 10162 10178 10195 10212 10228 10241
10200 10196 10191 10187 10184 10179 10175 10172 10167 10163 10159 10153 10148 10142 10136 10130 10124 10117 10111 10105 10098 10092 10088 10084 10081 10081 10082 10084 10087 10090 10096 10102 10110 10119 10130 10142 10154 10168 10182 10197 10211 10225 10241
10196 10192 10189 10187 10183 10180 10178 10173 10170 10166 10164 10160 10158 10154 10148 10142 10134 10129 10123 10118 10113 10108 10102 10097 10094 10094 10095 10096 10097 10101 10107 10113 10121 10130 10140 10152 10163 10175 10188 10202 10215 10229 10241
10193 10191 10189 10186 10185 10183 10181 10178 10175 10171 10169 10168 10163 10161 10159 10153 10147 10142 10137 10133 10127 10122 10118 10114 10112 10111 10109 10108 10112 10116 10119 10125 10133 10142 10150 10159 10171 10183 10194 10206 10217 10228 10239
10192 10191 10190 10189 10188 10187 10186 10185 10183 10181 10181 10179 10176 10173 10169 10164 10160 10156 10153 10148 10144 10141 10138 10135 10133 10131 10129 10129 10129 10130 10134 10140 10148 10156 10163 10171 10181 10192 10201 10210 10221 10231 10242
10192 10191 10193 10192 10192 10192 10192 10192 10190 10189 10189 10188 10186 10184 10181 10178 10174 10172 10169 10165 10162 10157 10153 10150 10149 10148 10147 10147 10149 10151 10154 10158 10163 10167 10175 10183 10190 10199 10208 10216 10225 10234 10244
10192 10193 10196 10196 10197 10197 10197 10199 10198 10197 10198 10198 10197 10196 10195 10192 10190 10187 10184 10180 10177 10174 10170 10166 10164 10163 10163 10163 10164 10167 10170 10173 10177 10183 10189 10195 10202 10209 10217 10224 10231 10239 10247
10193 10196 10198 10200 10201 10202 10204 10207 10208 10208 10210 10211 10210 10209 10206 10204 10202 10200 10197 10194 10192 10187 10183 10181 10179 10178 10178 10179 10180 10181 10183 10186 10190 10195 10200 10205 10211 10217 10224 10231 10237 10245 10252
10195 10198 10200 10203 10205 10208 10211 10216 10217 10219 10219 10220 10221 10220 10219 10218 10216 10213 10211 10207 10205 10201 10197 10197 10195 10194 10193 10192 10192 10194 10196 10198 10201 10205 10210 10216 10221 10226 10232 10238 10244 10251 10257
10196 10201 10204 10208 10210 10213 10218 10222 10224 10226 10228 10229 10230 10231 10231 10230 10228 10227 10225 10223 10220 10218 10215 10214 10212 10212 10211 10210 10209 10207 10207 10209 10212 10216 10220 10225 10230 10234 10240 10246 10251 10256 10263